TimeEDT,TemperatureF,Dew PointF,Humidity,Sea Level PressureIn,VisibilityMPH,Wind Direction,Wind SpeedMPH,Gust SpeedMPH,PrecipitationIn,Events,Conditions,WindDirDegrees,DateUTC
12:58 AM,51.3,33.3,50,30.10,10.0,SE,4.6,-,N/A,,Mostly Cloudy,140,2013-05-14 04:58:00
1:58 AM,51.1,35.2,55,30.08,10.0,South,5.8,-,N/A,,Clear,170,2013-05-14 05:58:00
2:58 AM,52.2,38.5,60,30.05,10.0,SSW,8.1,-,N/A,,Scattered Clouds,200,2013-05-14 06:58:00
3:58 AM,54.0,37.4,54,30.03,10.0,SSW,10.4,-,N/A,,Overcast,210,2013-05-14 07:58:00
4:58 AM,53.1,37.8,56,30.00,10.0,SSW,11.5,-,N/A,,Mostly Cloudy,200,2013-05-14 08:58:00
5:58 AM,54.7,36.9,51,30.00,10.0,SSW,11.5,-,N/A,,Overcast,200,2013-05-14 09:58:00
6:58 AM,54.1,36.0,50,30.00,10.0,South,12.7,-,N/A,,Mostly Cloudy,190,2013-05-14 10:58:00
7:58 AM,56.1,36.1,47,29.98,10.0,South,15.0,23.0,N/A,,Clear,190,2013-05-14 11:58:00
8:58 AM,59.0,38.7,47,29.97,10.0,South,17.3,-,N/A,,Partly Cloudy,190,2013-05-14 12:58:00
9:58 AM,63.5,41.7,45,29.93,10.0,SSW,20.7,29.9,N/A,,Partly Cloudy,200,2013-05-14 13:58:00
10:28 AM,66.2,44.6,46,29.89,10.0,SSW,21.9,29.9,N/A,,Clear,200,2013-05-14 14:28:00
10:58 AM,67.6,46.0,46,29.89,10.0,SSW,21.9,27.6,N/A,,Partly Cloudy,200,2013-05-14 14:58:00
11:58 AM,70.7,48.9,46,29.87,10.0,SSW,21.9,29.9,N/A,,Partly Cloudy,200,2013-05-14 15:58:00
12:58 PM,74.7,52.2,45,29.82,10.0,SSW,21.9,27.6,N/A,,Clear,200,2013-05-14 16:58:00
1:58 PM,79.2,54.0,42,29.81,10.0,WSW,20.7,32.2,N/A,,Clear,240,2013-05-14 17:58:00
2:58 PM,80.8,56.1,43,29.80,10.0,WSW,19.6,28.8,N/A,,Clear,250,2013-05-14 18:58:00
3:58 PM,82.6,57.6,42,29.78,10.0,WSW,20.7,27.6,N/A,,Clear,250,2013-05-14 19:58:00
4:58 PM,83.1,58.5,43,29.79,10.0,West,16.1,26.5,N/A,,Clear,260,2013-05-14 20:58:00
5:58 PM,84.2,59.4,43,29.79,10.0,WSW,17.3,-,N/A,,Clear,250,2013-05-14 21:58:00
6:58 PM,83.5,59.4,44,29.79,10.0,WSW,15.0,-,N/A,,Clear,250,2013-05-14 22:58:00
7:58 PM,80.2,60.6,51,29.79,10.0,SW,16.1,-,N/A,,Clear,230,2013-05-14 23:58:00
8:58 PM,76.1,61.0,59,29.78,10.0,SSW,13.8,-,N/A,,Clear,210,2013-05-15 00:58:00
9:58 PM,74.7,60.6,61,29.77,10.0,SSW,15.0,-,N/A,,Clear,210,2013-05-15 01:58:00
10:58 PM,73.4,60.4,64,29.78,10.0,SSW,11.5,-,N/A,,Clear,210,2013-05-15 02:58:00
11:58 PM,73.9,59.9,61,29.77,10.0,SW,17.3,-,N/A,,Mostly Cloudy,220,2013-05-15 03:58:00